Ashtabula, OH

11:22 PM EST on December 15, 2017 (GMT -0500)
Ashtabula County

Weather History for KHZY - February, 2014

Change the Weather History Date:

Wednesday, February 12, 2014

  Actual Average (KGKJ) Record (KGKJ)
Temperature  
Mean Temperature 6 °F -  
Max Temperature 26 °F 33 °F 54 °F (1965)
Min Temperature -13 °F 13 °F -19 °F (1979)
Degree Days  
Heating Degree Days 58    
Moisture  
Dew Point -3 °F    
Average Humidity 60    
Maximum Humidity 83    
Minimum Humidity 35    
Precipitation  
Precipitation 0.15 in - - ()
Sea Level Pressure  
Sea Level Pressure 30.33 in    
Wind  
Wind Speed 3 mph (SE)    
Max Wind Speed 9 mph    
Max Gust Speed -    
Visibility 10 miles    
Events      
Averages and records for this station are not official NWS values.
T = Trace of Precipitation, MM = Missing Value Source: NWS Daily Summary

Daily Weather History Graph

Daily Weather History Graph

Search for Another Location

Airport or City:

Trip Planner

Search our weather history database for the weather conditions in past years. The results will help you decide how hot, cold, wet, or windy it might be!

Date:

Astronomy

Feb. 12, 2014 Rise Set
Actual Time 7:22 AM EST 5:52 PM EST
Civil Twilight 6:53 AM EST 6:21 PM EST
Nautical Twilight 6:20 AM EST 6:53 PM EST
Astronomical Twilight 5:48 AM EST 7:26 PM EST
Moon 4:04 PM EST (2/12) 5:39 AM EST (2/12)
Length of Visible Light 11h 27m
Length of Day
10h 29m
Waxing Gibbous, 95% of the Moon is Illuminated
Feb 12
Waxing Gibbous
Feb 14
Full
Feb 22
Last Quarter
Mar 1
New
Mar 8
First Quarter

Hourly Weather History & Observations

Time (EST) Temp. Windchill Dew Point Humidity Pressure Visibility Wind Dir Wind Speed Gust Speed Precip Events Conditions
12:53 AM -9.9 °F - -16.1 °F 74% 30.52 in 9.0 mi Calm Calm - N/A   Clear
1:53 AM -11.0 °F - -17.0 °F 75% 30.50 in 10.0 mi Calm Calm - N/A   Clear
2:53 AM -13.0 °F - -20.0 °F 71% 30.49 in 10.0 mi Calm Calm - N/A   Clear
3:53 AM -13.0 °F - -18.9 °F 75% 30.48 in 8.0 mi Calm Calm - N/A   Clear
4:53 AM -0.0 °F -13.0 °F -6.0 °F 76% 30.45 in 9.0 mi SE 6.9 mph - N/A   Clear
5:53 AM -0.0 °F -11.6 °F -6.0 °F 76% 30.46 in 10.0 mi SSE 5.8 mph - N/A   Clear
6:53 AM -6.0 °F - -13.0 °F 72% 30.47 in 8.0 mi Calm Calm - N/A   Clear
7:53 AM -8.0 °F -16.9 °F -11.9 °F 83% 30.46 in 7.0 mi SE 3.5 mph - N/A   Clear
8:53 AM -0.0 °F -11.6 °F -4.0 °F 83% 30.43 in 8.0 mi SE 5.8 mph - N/A   Clear
9:53 AM 8.1 °F -5.3 °F 1.0 °F 73% 30.43 in 10.0 mi SSE 9.2 mph - N/A   Clear
10:53 AM 12.9 °F 2.6 °F 3.0 °F 65% 30.42 in 10.0 mi SSE 6.9 mph - N/A   Clear
11:53 AM 17.1 °F 8.7 °F 3.9 °F 56% 30.37 in 10.0 mi ESE 5.8 mph - N/A   Clear
12:53 PM 19.9 °F 12.1 °F 3.9 °F 50% 30.33 in 10.0 mi SE 5.8 mph - N/A   Clear
1:53 PM 23.0 °F - 3.0 °F 42% 30.29 in 10.0 mi Calm Calm - 0.03 in   Clear
2:53 PM 24.1 °F 19.7 °F 3.9 °F 42% 30.24 in 10.0 mi East 3.5 mph - 0.06 in   Clear
3:53 PM 25.0 °F 19.3 °F 3.9 °F 41% 30.21 in 10.0 mi East 4.6 mph - 0.04 in   Clear
4:53 PM 26.1 °F 17.6 °F 1.9 °F 35% 30.18 in 10.0 mi SE 8.1 mph - 0.02 in   Clear
5:53 PM 25.0 °F 18.1 °F 1.0 °F 36% 30.18 in 10.0 mi SSE 5.8 mph - N/A   Clear
6:53 PM 23.0 °F 14.7 °F 1.9 °F 40% 30.19 in 10.0 mi SSE 6.9 mph - N/A   Clear
7:53 PM 17.1 °F - 1.0 °F 50% 30.20 in 10.0 mi Calm Calm - N/A   Clear
8:53 PM 15.1 °F 6.4 °F 1.0 °F 54% 30.19 in 10.0 mi SE 5.8 mph - N/A   Clear
9:53 PM 17.1 °F 10.0 °F 1.9 °F 52% 30.17 in 10.0 mi SE 4.6 mph - N/A   Clear
10:53 PM 16.0 °F 4.4 °F 1.9 °F 54% 30.16 in 10.0 mi SE 9.2 mph - N/A   Clear
11:53 PM 14.0 °F 6.5 °F -0.0 °F 54% 30.14 in 10.0 mi SE 4.6 mph - N/A   Clear